Home > Time Zones > World Clock > Weather > France > Lens > Past weeks

Flag for France Weather past 2 weeks in Lens, France

Now
64 °F

Partly sunny.


Feels Like: 64 °F
Forecast: 48 / 65 °F
Wind: 8 mph from Southwest

Location: Lille Airport

Current Time: May 22, 2015 at 3:06:28 PM

Latest Report: May 22, 2015 at 2:30 PM


Visibility: N/A

Pressure: 30.27 "Hg

Humidity: 56%

Dew point: 48 °F

Location of LensLocation

Historic Weather in Lens — Graph

°F

Lens temperature yesterday

Maximum temperature yesterday: 64 °F (at 3:30 PM)
Minimum temperature yesterday: 41 °F (at 4:30 AM)
Average temperature yesterday: 53 °F

Past Weeks' High & Low Weather Summary

 TemperatureHumidityPressure
High77 °F (May 11, 3:30 PM)100% (May 13, 7:00 AM)30.36 "Hg (May 13, 7:00 AM)
Low41 °F (May 21, 4:30 AM)34% (May 21, 4:30 PM)29.68 "Hg (May 18, 7:30 PM)
Average55 °F71%30.08 "Hg
* Reported May 7 2:00 PM — May 22 2:00 PM, Lens, Weather by CustomWeather, © 2015

Note: Actual official high and low records may vary slightly from our data, if they occured in-between our weather recording intervals... More about our weather records

Advertising

Lens weather history for previous 24 hours

 ConditionsComfort  
Time TempWeatherWind HumidityBarometerVisibility
2:00 PM
Fri, May 22
63 °FPartly sunny.7 mph64%30.30 "HgN/A
1:30 PM63 °FBroken clouds.6 mph64%30.30 "HgN/A
1:00 PM61 °FBroken clouds.5 mph63%30.30 "HgN/A
12:30 PM61 °FBroken clouds.5 mph68%30.30 "HgN/A
12:00 PM61 °FBroken clouds.6 mph68%30.33 "HgN/A
11:30 AM59 °FBroken clouds.6 mph72%30.33 "HgN/A
11:00 AM57 °FScattered clouds.5 mph77%30.33 "HgN/A
10:30 AM55 °FPartly sunny.5 mph82%30.33 "HgN/A
10:00 AM52 °FPartly sunny.6 mph88%30.33 "HgN/A
9:30 AM52 °FPartly sunny.5 mph88%30.33 "HgN/A
9:00 AM50 °FPartly sunny.3 mph94%30.33 "Hg5 mi
8:30 AM50 °FPartly sunny.5 mph94%30.33 "Hg5 mi
8:11 AM50 °FPartly sunny.6 mph94%30.33 "Hg5 mi
7:30 AM48 °FPartly sunny.5 mph94%30.33 "Hg5 mi
7:00 AM48 °FPartly sunny.3 mph94%30.33 "Hg5 mi
6:30 AM46 °FPassing clouds.5 mph93%30.33 "Hg5 mi
6:00 AM46 °FClear.5 mph93%30.33 "Hg5 mi
5:30 AM46 °FClear.6 mph93%30.33 "Hg10 mi
5:00 AM48 °FClear.5 mph87%30.33 "Hg10 mi
4:30 AM48 °FCool.3 mph87%30.33 "HgN/A
4:00 AM48 °FCool.3 mph87%30.33 "HgN/A
3:30 AM48 °FCool.3 mph87%30.33 "HgN/A
3:00 AM48 °FCool.5 mph87%30.36 "HgN/A
2:30 AM50 °FCool.3 mph88%30.36 "HgN/A
2:00 AM52 °FClear.3 mph82%30.36 "Hg10 mi
1:30 AM52 °FClear.3 mph82%30.36 "Hg10 mi
1:00 AM50 °FClear.3 mph88%30.36 "Hg10 mi
12:30 AM50 °FClear.5 mph82%30.36 "Hg10 mi
12:00 AM50 °FClear.5 mph76%30.36 "Hg10 mi
11:30 PM
Thu, May 21
50 °FClear.7 mph76%30.36 "Hg10 mi
11:00 PM52 °FClear.7 mph72%30.36 "Hg10 mi
10:30 PM54 °FSunny.8 mph63%30.36 "Hg10 mi
10:00 PM54 °FSunny.7 mph63%30.36 "Hg10 mi
9:30 PM57 °FSunny.7 mph55%30.33 "Hg10 mi
9:00 PM59 °FSunny.7 mph51%30.33 "Hg10 mi
8:30 PM61 °FSunny.9 mph48%30.33 "Hg10 mi
8:00 PM63 °FSunny.7 mph45%30.33 "Hg10 mi
7:30 PM63 °FSunny.12 mph45%30.33 "Hg10 mi
7:00 PM63 °FSunny.9 mph45%30.33 "Hg10 mi
6:30 PM61 °FSunny.12 mph48%30.33 "Hg10 mi
6:00 PM63 °FSunny.10 mph42%30.33 "Hg10 mi
5:30 PM63 °FPassing clouds.10 mph42%30.33 "HgN/A
5:00 PM64 °FPassing clouds.10 mph34%30.30 "HgN/A
4:30 PM64 °FPassing clouds.9 mph34%30.30 "HgN/A
4:00 PM63 °FPassing clouds.9 mph39%30.33 "HgN/A
3:30 PM64 °FPassing clouds.10 mph43%30.33 "HgN/A
3:00 PM63 °FScattered clouds.9 mph42%30.33 "HgN/A
Weather by CustomWeather, © 2015

See weather overviewHow to use our weather pages